Regional Weather Roundup
Issued by NWS Wakefield, VA

Home | Current Version | Previous Version | Text Only | Print | Product List | Glossary Off
Versions: 1 2 3 4 5 6 7 8 9 10 11 12 13 14 15 16 17 18 19 20 21 22 23 24 25 26 27 28 29 30 31 32 33 34 35 36 37 38 39 40 41 42 43 44 45 46 47 48 49 50

000
ASUS41 KAKQ 291215
RWRAKQ

REGIONAL WEATHER ROUNDUP
NATIONAL WEATHER SERVICE WAKEFIELD VA
800 AM EDT FRI MAY 29 2015

Note: "fair" indicates few or no clouds below 12,000 feet with no
significant weather and/or obstructions to visibility. * = Denotes
station may not report precipitation (e.g., rain,snow,etc.),
thunder or fog.

VAZ042-051-052>054-056-291300-
NORTHERN VIRGINIA

CITY           SKY/WX    TMP DP  RH WIND       PRES   REMARKS
WASH NATIONAL  MOSUNNY   75  63  66 E12       30.26R
DULLES         MOSUNNY   72  61  68 E7        30.26R
FORT BELVOIR   CLOUDY    72  69  88 VRB2      30.25R
QUANTICO       CLOUDY    73  69  87 E9        30.25R
FREDERICKSBRG* CLOUDY    72  72 100 E3        30.24R
STAFFORD*      CLOUDY    71  69  93 SE3       30.29R FOG
WARRENTON      CLOUDY    71  70  96 CALM      30.26R
CULPEPER*      CLOUDY    69  67  93 CALM      30.27R
MANASSAS*      CLOUDY    72  70  94 NE7       30.26R
LEESBURG*      SUNNY     72  61  68 NE8       30.28S
WINCHESTER     CLOUDY    70  52  52 CALM      30.28R
FRONT ROYAL*   CLOUDY    64  61  88 N3        30.28R
LURAY*         FAIR      68  68 100 N3        30.28R
$$

VAZ048-049-060>072-079>083-291300-
CENTRAL AND SOUTH CENTRAL VIRGINIA

CITY           SKY/WX    TMP DP  RH WIND       PRES   REMARKS
RICHMOND       MOSUNNY   72  66  81 S8        30.24R
CHESTERFIELD*  NOT AVBL
PETERSBURG*    SUNNY     71  71  99 S3        30.25R
HANOVER        MOSUNNY   72  67  84 VRB6      30.25R
TAPPAHANNOCK*  MOSUNNY   72  63  72 S3        30.25S
QUINTON*       FAIR      70  65  83 CALM      30.24R
CHARLOTTSVILLE SUNNY     71  64  78 E3        30.26R
GORDONSVILLE*  FAIR      69  66  89 N5        30.24S
ORANGE*        CLOUDY    70  66  88 CALM      30.27R
LOUISA*        SUNNY     70  68  94 N3        30.24R
BUMPASS*       FAIR      71  68  89 CALM      30.24R
FARMVILLE*     SUNNY     71  70  98 CALM      30.23R
CREWE*         FAIR      70  68  92 CALM      30.24S
FORT PICKETT*  FAIR      70  67  90 S3        30.24S
CHASE CITY*    FAIR      72  71  98 SW3       30.24S
CLARKSVILLE*   PTSUNNY   68  66  94 SW5       30.23S
SOUTH HILL*    SUNNY     69  65  88 CALM      30.30R
LAWRENCEVILLE* FAIR      70  66  88 CALM      30.25R
EMPORIA*       PTSUNNY   68  64  88 SE3       30.26R
$$

VAZ088>098-291300-
SOUTHEAST VIRGINIA

CITY           SKY/WX    TMP DP  RH WIND       PRES   REMARKS
NORFOLK        MOSUNNY   73  63  70 SW7       30.25R
VIRGINIA BEACH PTSUNNY   75  65  70 SW5       30.25R
NORFOLK NAVAL  MOSUNNY   78  63  59 S7        30.26R
WEST POINT*    SUNNY     75  63  67 S5        30.26S
SALUDA*        FAIR      72  65  79 S5        30.25R
NEWPORT NEWS   PTSUNNY   77  64  64 SW9       30.25R
LANGLEY AFB    MOSUNNY   74  66  77 S5        30.24R
FORT EUSTIS    MOSUNNY   73  65  76 S6        30.24R
WILLIAMSBURG*  SUNNY     73  66  78 SW7       30.26R
HR EXEC AP*    FAIR      73  64  73 SW8       30.26S
FRANKLIN*      CLOUDY    71  64  79 S6        30.26R
WAKEFIELD      PTSUNNY   71  64  78 S3        30.25R
$$

VAZ020-022-025-037-045-291300-
WEST CENTRAL AND SOUTHWEST VIRGINIA

CITY           SKY/WX    TMP DP  RH WIND       PRES   REMARKS
STAUNTON*      MOSUNNY   66  65  96 CALM      30.31R FOG
WAYNESBORO*    CLOUDY    64  64  97 CALM      30.29R
HOT SPRINGS VA CLOUDY    63  63 100 E6        30.35S
LYNCHBURG      SUNNY     70  66  87 CALM      30.27R
DANVILLE       SUNNY     71  65  81 CALM      30.25R
SOUTH BOSTON*  FAIR      69  65  88 CALM      30.25R
MARTINSVILLE   SUNNY     67  67 100 CALM      30.28S
ROANOKE        MOSUNNY   69  64  84 CALM      30.29R
BLACKSBURG     MOSUNNY   64  63  96 CALM      30.33R FOG
DUBLIN*        CLOUDY    64  64 100 CALM      30.32R
MARION*        FOG       62  61  96 CALM      30.34R VSB<1/4
HILLSVILLE*    NOT AVBL
RICHLANDS*     CLOUDY    66  61  82 CALM      30.29R
WISE*          CLOUDY    64  63  94 S3        30.30R
ABINGDON*      SUNNY     68  64  84 E7        30.27R
$$

MDZ021>025-VAZ099-100-291300-
SOUTHERN MARYLAND AND THE DELMARVA PENINSULA

CITY           SKY/WX    TMP DP  RH WIND       PRES   REMARKS
PATUXENT RIVER MOSUNNY   72  68  87 E5        30.25R
BAY BRIDGE APT   N/A    N/A N/A N/A E9        30.27R
LEONARDTOWN    PTSUNNY   72  66  83 SE3       30.26R
DOVER          MOSUNNY   69  61  76 E12       30.25R
GEORGETOWN     MOSUNNY   71  64  78 NE6       30.27R
EASTON         CLOUDY    73  73 100 E6        30.29R
CAMBRIDGE      CLOUDY    72  66  83 SE5       30.25R
SALISBURY      PTSUNNY   68  64  87 SE5       30.26R
OCEAN CITY     CLOUDY    70  65  84 CALM      30.27R
WALLOPS ISLAND CLOUDY    69  66  90 S5        30.27R
ACCOMACK*      MOSUNNY   72  68  88 S5        30.25S
$$

NCZ012>017-030>032-291300-
NORTH CENTRAL AND EASTERN NORTH CAROLINA

CITY           SKY/WX    TMP DP  RH WIND       PRES   REMARKS
ROANOKE RAPIDS FAIR      70  64  83 S5        30.25R
RALEIGH        MOSUNNY   71  65  81 SW3       30.25R
ELIZABETH CITY SUNNY     73  66  78 SW3       30.26R
AHOSKIE*       MOSUNNY   70  64  80 S5        30.26R
EDENTON*       SUNNY     72  65  79 CALM      30.26R
CURRITUCK*     SUNNY     72  64  75 CALM      30.26R
KILL DEVIL HLS SUNNY     71  65  80 CALM      30.24R
MANTEO         SUNNY     73  64  72 CALM      30.25R
CAPE HATTERAS  SUNNY     75  65  70 NE6       30.24R
TARBORO*       FAIR      70  65  84 CALM      30.26R
GOLDSBORO      SUNNY     72  65  79 CALM      30.23R
WASHINGTON     SUNNY     71  64  81 CALM      30.25R
GREENVILLE     SUNNY     72  64  78 CALM      30.26R
NEW BERN       SUNNY     72  65  78 CALM      30.25R
WILMINGTON     SUNNY     71  65  81 NE6       30.22R
$$

VAZ048-291300-
ELSEWHERE

CITY           SKY/WX    TMP DP  RH WIND       PRES   REMARKS
HARRISBURG PA  SUNNY     68  55  63 E3        30.30R
BALTIMORE      MOSUNNY   72  58  61 E14G24    30.27R
ANNAPOLIS      CLOUDY    70  62  76 E8        30.27R
ANDREWS AFB    PTSUNNY   69  67  92 NE8       30.25S
PHILADELPHIA   MOSUNNY   72  55  55 NE8       30.29R
HENDERSON NC   MOSUNNY   69  64  84 SW6       30.25R
GREENSBORO     CLOUDY    69  67  93 SW6       30.25R FOG
ROCKY MOUNT    MOSUNNY   71  65  81 S3        30.25R
$$

VAZ100-291300-
MARINE

STATION/POSITION TIME  TEMP    WIND        PRES    WAVE   SWELL
                       AIR SEA DIR/SP/G            HT/PER HT/PER
                 (UTC) (F)     (DEG/KT/KT) (MB)    (FT/S) (FT/S)
BRANDYWINE LGT   1100   67 65   80/ 12/ 13 1024.8R
CAPE MAY NJ      1100   67 69   60/  8/ 16 1024.4R
LEWES DE         1100   65 64   80/  6/  6 1024.5R
15NM E FENWICK I 1150   65 63              1024.7R   3/ 9
OCEAN-CITY-INLET 1100   63 57  220/  1/  2 1024.3R
WACHAPREAGUE VA  1100   69 73  200/  5/  7 1024.1R
THOMAS POINT MD  1200   69 71   50/ 10/ 12 1025.3R
GOOSES REEF MD   1200   72 71  110/  6/  6 1025.3R   1/ 3
COVE POINT MD    1100   71     170/  5/  6 1024.5R
SOLOMONS ISLAND  1100      70                N/A
BISHOPS HEAD MD  1100   73 74  200/  3/  3 1023.9R
PINEY POINT MD   1100          180/  3/  3   N/A
CAMBRIDGE MD     1100   71 75  100/  5/  5 1023.9R
LEWISETTA VA     1100   71 75              1023.7R
RAPPAHANNOCK LGT 1100          190/ 11/ 12 1024.4R
STINGRAY PT      1200   72 71  210/  8/  8 1024.2R   1/ 2
YORK RVR RNG VA  1100   71     220/  9/ 10 1023.2R
YORKTOWN VA      1100   71 71  210/  3/  4 1023.5R
JAMESTOWN VA     1200   71 76  200/  6/  8 1023.4R
DOMINION TERM VA 1100   71     190/  5/  7 1023.9R
KIPTOPEKE VA     1100      76  180/  5/  5   N/A
CHES BAY BRIDGE  1100   70 64  170/  5/  7 1023.4R
CAPE HENRY VA    1100   70     160/  3/  5 1022.7R
CHESAPEAKE LGHT  1100   69     200/  7/  7 1024.7R
WILLOUBY STN VA  1100   72     180/  4/  5 1024.6R
CAPE HENRY BUOY  1128      61                N/A     3/ 9
1ST LANDING BUOY 1200      71              1024.1R
CAPE CHARLES BUO 1126      67                N/A     3/ 8   3/ 8
OFFSHORE WE BUOY 1111      66                N/A     3/ 8   3/ 8
64NM E OF VA BCH 1150   68 65  100/  4/  4 1024.1R   3/ 8   3/ 8
DUCK PIER NC     1100   66 56  130/  4/  4 1023.0R
44100 DUCK FRF   1124      68                N/A     3/ 8
44056 DUCK FRF   1111      62                N/A     2/ 9
OREGON INLET NC  1100   73 77  360/  3/  3 1023.8S
HATTERAS NC      1100   74 76   10/  7/  9 1023.2R
DIAMOND SHLS NC  1150   75 76   40/  6/  8 1023.8R   4/ 9   3/ 9
CAPE LOOKOUT NC  1200   74      40/  8/  8 1023.5R
$$



USA.gov is the U.S. government's official web portal to all federal, state and local government web resources and services.